Flag for Ireland Weather past 2 weeks in Cork, Ireland

Now
60 °F

Fog.


Feels Like: 61 °F
Forecast: 57 / 72 °F
Wind: 3 mph from Northwest

Location: Cork Airport

Current Time: Jul 25, 2014 at 8:10:41 AM

Latest Report: Jul 25, 2014 at 7:00 AM


Visibility: 0 mi

Pressure: 30.07 "Hg

Humidity: 99%

Dew point: 60 °F

Location of CorkLocation

Historic Weather in Cork — Graph

°F

Cork temperature yesterday

Maximum temperature yesterday: 75 °F (at 1:00 PM)
Minimum temperature yesterday: 60 °F (at 6:00 AM)
Average temperature yesterday: 66 °F

Past Weeks' High & Low Weather Summary

 TemperatureHumidityPressure
High75 °F (Jul 24, 1:00 PM)100% (Jul 11, 11:00 AM)30.24 "Hg (Jul 11, 11:00 AM)
Low52 °F (Jul 11, 11:00 AM)51% (Jul 13, 3:00 PM)29.75 "Hg (Jul 19, 5:00 AM)
Average62 °F87%30.02 "Hg
* Reported Jul 10 6:00 AM — Jul 25 6:00 AM, Cork, Weather by CustomWeather, © 2014

Note: Actual official high and low records may vary slightly from our data, if they occured in-between our weather recording intervals... More about our weather records

Advertising

Cork weather history for previous 24 hours

 ConditionsComfort  
Time TempWeatherWind HumidityBarometerVisibility
6:00 AM
Jul 25
60 °FFog.5 mph98%30.07 "Hg0 mi
5:00 AM60 °FFog.5 mph97%30.07 "Hg0 mi
4:00 AM61 °FPassing clouds.5 mph96%30.08 "Hg16 mi
3:00 AM62 °FClear.5 mph95%30.09 "Hg16 mi
2:00 AM62 °FClear.5 mph92%30.09 "Hg16 mi
1:00 AM63 °FClear.5 mph89%30.09 "Hg16 mi
12:00 AM64 °FPassing clouds.3 mph88%30.09 "Hg16 mi
11:00 PM
Jul 24
64 °FPassing clouds.5 mph89%30.10 "Hg16 mi
10:00 PM64 °FPassing clouds.5 mph89%30.10 "Hg19 mi
9:00 PM66 °FScattered clouds.3 mph87%30.08 "Hg22 mi
8:00 PM68 °FPartly sunny.3 mph80%30.08 "Hg22 mi
7:00 PM69 °FPartly sunny.3 mph77%30.08 "Hg16 mi
6:00 PM72 °FPartly sunny.3 mph69%30.07 "Hg11 mi
5:00 PM73 °FPartly sunny.5 mph70%30.06 "Hg19 mi
4:00 PM74 °FPartly sunny.5 mph71%30.06 "Hg16 mi
3:00 PM72 °FOvercast.6 mph75%30.06 "Hg22 mi
2:00 PM75 °FPartly sunny.2 mph65%30.07 "Hg22 mi
1:00 PM75 °FOvercast.3 mph66%30.07 "Hg22 mi
12:00 PM71 °FPartly sunny.5 mph80%30.08 "Hg16 mi
11:00 AM68 °FPartly sunny.7 mph87%30.08 "Hg12 mi
10:00 AM67 °FLow clouds.8 mph90%30.08 "Hg12 mi
9:00 AM64 °FLow clouds.7 mph96%30.08 "Hg12 mi
8:00 AM63 °FFog.8 mph98%30.08 "Hg6 mi
Weather by CustomWeather, © 2014

See weather overviewHow to use our weather pages